Probability
0 0 0 0 0 0 0 0 0 0 0 0 0 0 0 0 0 0 1 1 2 2 1 1 1 0 0 0 0 0 0 0 0 1 1 3 6 6 5 5 5 5 5
0 0 0 0 0 0 0 0 0 0 0 0 0 0 0 0 0 0 0 1 2 2 1 0 0 0 1 1 0 0 0 0 1 2 2 3 5 6 5 5 4 4 4
0 0 0 0 0 0 0 0 0 0 0 0 0 0 0 0 0 0 0 0 1 1 0 0 0 0 1 2 1 0 0 1 2 3 3 3 4 5 5 4 4 3 3
0 0 0 0 0 0 0 0 0 0 0 0 0 0 0 0 0 0 0 0 0 0 0 0 0 0 1 2 1 0 1 2 3 3 3 3 4 5 5 5 4 3 3
0 0 0 0 0 0 0 0 0 0 0 0 0 0 0 0 0 0 0 0 0 0 0 0 0 0 0 1 1 0 1 2 3 3 3 3 3 4 4 4 3 2 1
0 0 0 0 0 0 0 0 0 0 0 0 0 0 0 0 0 0 0 0 1 0 0 0 0 0 0 0 0 0 0 1 2 2 2 3 3 3 3 2 1 1 0
0 0 0 0 0 0 0 0 0 0 0 0 0 0 0 0 0 0 0 0 0 0 0 0 1 0 0 0 0 0 0 0 0 0 1 2 3 3 3 1 0 0 0
0 0 0 0 0 0 0 0 0 0 0 0 0 0 0 0 0 0 0 0 0 0 0 0 0 0 0 0 0 0 0 0 0 0 0 1 2 3 3 1 0 0 0
0 0 0 0 0 0 0 0 0 0 0 0 0 0 0 0 0 0 0 0 0 0 0 0 0 0 0 0 0 0 0 0 0 0 0 0 1 1 1 1 0 0 0
0 0 0 0 0 0 0 0 0 0 0 0 0 0 0 0 0 0 0 0 0 0 0 0 0 0 0 0 0 0 0 0 0 0 0 0 0 0 1 1 2 1 1
0 0 0 0 0 0 0 0 0 0 0 0 0 0 0 0 0 0 0 0 0 0 0 0 0 0 0 0 0 0 0 0 0 0 0 0 0 1 2 3 4 4 3
0 0 0 0 0 0 0 0 0 0 0 0 0 0 0 0 0 0 0 0 0 0 0 0 0 0 0 0 0 0 0 0 0 0 0 0 0 1 3 3 4 5 6
0 0 0 0 0 0 0 0 0 0 0 0 0 0 0 0 0 0 0 0 0 0 0 0 0 0 0 0 0 0 0 0 0 0 0 0 1 2 3 3 3 5 6
0 0 0 0 0 0 0 0 0 0 0 0 0 0 0 0 0 0 0 0 0 0 0 0 0 1 1 1 0 0 0 0 0 0 0 0 1 2 3 2 3 4 5
0 0 0 0 0 0 0 0 0 0 0 0 0 0 0 0 0 0 0 0 0 0 0 0 0 1 1 1 0 0 0 0 0 0 0 0 0 1 1 1 2 2 3
0 0 0 0 0 0 0 0 0 0 0 0 0 0 0 0 0 0 0 0 0 0 0 0 0 0 0 0 0 0 0 0 0 0 0 0 0 0 0 0 0 1 1
0 0 0 0 0 0 0 0 0 0 0 0 0 0 0 0 0 0 0 0 0 0 0 0 0 0 0 0 0 0 0 0 0 0 0 0 0 0 0 0 0 0 0
0 0 0 0 0 0 0 0 0 0 0 0 0 0 0 0 0 0 0 0 0 0 0 0 0 0 0 0 0 0 0 0 0 0 0 0 0 0 0 0 0 0 0
0 0 0 0 0 0 0 0 0 0 0 0 0 0 0 0 0 0 0 0 0 0 0 0 0 0 0 0 0 0 0 0 0 0 0 0 0 0 0 0 0 0 0
0 0 0 0 0 0 0 0 0 0 0 0 0 0 0 0 0 0 0 0 0 0 0 0 0 0 0 0 0 0 0 0 0 0 0 0 0 0 0 0 0 0 0
0 0 0 0 0 0 0 0 0 0 0 0 0 0 0 0 0 0 0 0 0 0 0 1 1 0 0 0 0 0 0 0 0 1 1 1 1 1 1 1 0 0 0
0 0 0 0 0 0 0 0 0 0 0 0 0 0 0 0 0 0 0 0 0 0 0 1 2 1 0 0 0 0 0 0 0 1 2 2 2 1 2 1 0 0 0
0 0 0 0 0 0 0 0 0 0 0 0 0 0 0 0 0 0 0 0 0 0 0 1 1 1 0 0 0 0 0 0 0 1 2 2 2 2 2 2 0 0 0
0 0 0 0 0 0 0 0 0 0 0 0 0 0 0 0 0 0 0 0 0 0 0 0 0 0 0 0 0 0 0 0 0 0 1 1 1 2 2 2 1 0 0
0 0 0 0 0 0 0 0 0 0 0 0 0 0 0 0 0 0 0 0 0 0 0 0 0 0 0 0 0 1 0 0 0 0 0 0 1 2 3 3 1 0 0
0 0 0 0 0 0 0 0 0 0 0 0 0 0 0 0 0 0 0 0 0 0 0 0 0 0 0 0 0 1 0 0 0 0 0 0 1 2 4 4 2 1 0
Wind_Speed
4 4 3 3 4 4 4 4 4 5 4 4 3 3 3 2 2 2 3 6 7 7 6 5 4 3 3 3 3 3 3 3 3 4 5 5 6 6 7 7 8 8 8
4 4 4 4 5 5 5 4 5 4 4 3 4 4 3 2 2 2 2 3 5 6 6 5 5 4 4 3 3 3 2 2 3 4 4 5 5 6 7 7 7 7 7
5 4 4 4 5 4 5 4 5 4 3 3 3 4 3 4 3 3 3 2 3 5 6 6 6 5 5 4 4 4 3 3 4 5 4 4 5 5 5 6 6 6 6
5 4 4 4 5 4 4 4 4 4 4 4 4 4 3 3 4 4 2 2 3 3 5 7 6 6 5 4 3 4 4 4 5 5 4 4 4 4 5 5 5 5 6
6 4 4 4 5 4 4 4 4 4 4 4 3 3 4 4 4 3 4 4 4 3 3 5 5 6 6 5 4 3 4 4 4 4 4 3 3 4 4 4 4 5 6
6 5 4 5 5 4 4 4 4 4 4 3 3 4 3 3 3 4 4 4 3 4 4 4 2 4 5 5 4 3 3 3 3 4 4 3 3 3 3 4 4 5 5
6 5 4 5 5 4 5 5 4 4 4 4 2 2 3 4 5 4 4 3 4 5 4 4 3 3 2 4 5 4 3 3 3 3 3 3 3 3 3 3 4 5 5
6 5 5 4 5 4 5 5 5 4 4 4 3 2 1 2 3 4 3 4 5 4 4 4 3 3 2 1 5 5 4 2 1 2 2 3 4 3 3 3 3 4 5
6 6 6 5 5 5 5 5 5 5 4 4 5 4 3 3 2 2 4 4 5 4 4 4 4 4 3 2 2 4 4 4 2 0 1 2 4 4 4 4 4 5 5
6 5 5 5 6 5 5 6 6 4 4 4 3 4 4 4 3 2 2 4 5 5 5 4 4 4 4 3 3 4 3 3 3 2 1 2 3 4 5 5 5 6 7
5 5 5 5 5 5 6 6 6 6 4 5 4 3 3 2 3 3 3 3 3 4 4 4 3 4 4 3 3 5 4 3 3 3 2 2 3 4 5 5 5 6 7
4 5 5 5 5 5 6 5 5 6 6 5 4 4 4 3 4 3 3 4 3 3 4 3 3 3 3 3 4 6 4 2 3 3 3 3 3 3 5 6 6 6 7
3 5 4 4 5 5 5 5 5 5 6 6 5 4 4 4 4 4 4 4 4 3 2 2 3 3 3 3 3 4 2 2 3 3 3 3 3 4 4 5 6 6 7
3 4 4 4 5 5 4 4 4 5 5 5 6 5 4 4 4 4 4 4 4 2 2 3 3 4 4 3 4 4 2 2 3 4 3 3 3 4 4 4 5 5 5
2 3 3 3 4 5 5 4 4 5 5 5 5 5 4 3 4 4 4 4 5 4 3 3 3 4 4 4 4 4 4 3 3 3 3 3 3 3 4 4 4 4 4
2 2 3 3 4 4 4 4 4 5 5 5 4 5 5 4 4 3 3 4 4 5 4 3 4 4 5 4 4 5 5 3 3 3 4 4 3 4 4 4 5 5 5
2 2 2 3 4 4 4 3 4 4 4 4 4 5 5 5 4 4 4 4 4 4 5 4 4 4 5 5 5 5 5 5 3 2 3 4 4 4 4 4 5 5 5
2 2 2 2 3 3 3 3 3 4 4 5 5 5 5 4 5 5 4 5 4 5 5 6 5 5 6 6 6 6 5 4 4 2 2 4 4 5 5 4 5 5 6
1 1 1 1 2 2 3 3 3 3 4 4 5 5 5 6 5 5 5 5 5 5 5 6 6 5 5 5 6 6 6 5 5 3 3 5 5 5 5 5 5 6 6
1 0 1 1 1 2 2 3 4 4 4 4 4 5 5 6 6 7 5 6 6 6 6 6 6 5 5 5 6 6 6 4 5 5 4 4 5 6 6 6 6 6 6
1 1 1 1 1 2 3 5 5 5 5 5 5 5 5 5 7 7 6 7 7 6 6 6 6 6 6 5 6 6 7 6 6 5 4 5 4 5 5 7 8 8 7
2 1 2 1 2 2 3 5 7 6 5 5 5 5 5 4 4 5 6 8 9 9 8 7 7 7 8 7 6 6 7 7 6 4 5 6 5 6 5 5 4 6 7
2 2 2 2 2 1 2 4 6 7 6 6 6 6 5 4 7 7 6 8 9 8 10 10 10 9 9 8 9 9 8 8 8 6 6 7 6 7 6 5 6 7 8
3 3 2 3 2 2 2 5 7 7 6 5 6 6 7 6 6 8 9 10 10 8 8 9 9 10 9 9 9 10 10 10 10 8 7 8 7 7 7 6 7 9 9
3 3 3 3 3 2 1 4 7 5 5 6 6 6 7 7 6 9 10 10 11 9 6 9 11 12 12 13 11 9 9 8 9 8 6 7 7 7 7 7 6 10 10
3 3 3 3 4 3 1 4 7 5 6 5 5 5 5 6 8 10 10 10 11 11 10 10 10 11 12 11 12 11 9 9 9 9 6 6 7 6 7 6 6 6 7
Wind_Direction
28 26 30 21 16 13 12 5 4 16 3 7 5 9 15 16 4 19 67 55 32 30 30 26 29 41 34 39 45 60 61 69 84 93 93 86 84 86 83 89 97 98 102
27 17 30 27 20 13 10 359 15 4 8 16 17 27 12 25 24 27 35 85 78 47 34 31 31 37 43 40 46 57 52 69 109 106 103 100 91 89 87 89 97 101 105
25 24 20 27 20 14 15 7 16 5 20 28 32 31 37 22 13 29 30 15 67 87 57 42 41 42 46 40 48 62 50 90 114 114 109 111 109 105 101 96 100 107 112
31 26 22 25 16 14 18 19 13 16 29 28 29 31 42 40 24 23 28 44 35 37 78 59 47 49 46 38 49 64 66 86 99 111 115 116 120 115 107 103 107 109 109
22 33 22 15 17 17 18 17 27 14 29 29 41 43 42 43 32 23 32 37 44 32 41 78 77 64 49 41 48 65 75 85 101 115 122 121 118 124 125 120 118 115 116
20 21 24 21 15 23 21 22 30 26 21 17 36 53 54 51 47 36 27 38 33 33 32 32 58 85 73 52 45 61 76 87 100 112 120 127 129 128 138 137 137 133 129
24 28 20 26 16 26 20 21 20 30 31 13 20 73 93 64 45 47 32 23 41 33 28 37 32 33 72 93 62 57 70 79 94 119 141 146 149 145 144 142 147 148 144
31 27 30 33 31 29 29 26 21 12 29 16 355 344 48 109 58 46 40 29 29 30 23 28 26 45 28 47 79 64 48 45 88 122 159 164 161 165 173 179 174 167 164
35 31 33 33 31 33 34 25 20 19 17 26 20 356 353 16 6 50 31 29 29 23 22 23 18 27 35 35 59 78 49 26 21 165 183 188 181 185 191 196 198 193 183
42 34 38 35 39 38 37 31 32 21 11 20 33 21 12 5 330 355 29 31 25 26 21 20 23 25 25 38 55 52 41 18 6 349 271 220 201 199 201 205 207 203 194
43 41 39 40 41 42 40 38 33 26 22 17 15 15 16 3 336 336 344 354 13 27 20 15 19 22 19 24 29 40 34 12 358 349 329 292 243 222 217 214 213 211 207
51 51 43 45 43 41 39 37 37 40 30 26 17 17 7 1 357 345 330 338 351 9 11 13 13 19 16 19 35 28 15 15 1 349 340 325 292 257 241 230 225 222 218
57 49 42 42 43 40 39 36 41 36 40 34 27 19 15 9 352 337 327 332 334 337 354 16 24 17 12 10 34 6 16 1 342 329 318 315 303 279 255 242 239 235 227
49 48 44 48 48 41 40 40 36 39 35 37 34 27 16 13 358 349 339 328 321 330 347 2 10 16 6 355 19 314 332 353 323 309 300 296 293 279 261 245 242 242 238
56 55 59 58 55 47 38 36 37 38 34 29 26 28 21 19 4 354 341 332 325 320 332 352 349 358 347 350 349 321 325 7 316 295 289 288 285 275 263 249 242 235 232
64 72 60 60 55 50 46 37 35 26 30 38 16 16 15 11 6 356 342 334 326 318 316 335 329 333 340 328 343 324 323 304 270 272 278 282 278 273 261 250 241 236 230
93 86 68 54 52 43 43 43 24 25 15 19 17 15 12 7 355 352 344 337 330 320 307 311 317 320 318 319 322 318 310 299 292 257 265 271 272 268 256 249 242 235 231
93 73 74 61 52 36 28 26 19 9 5 2 2 358 358 1 349 344 339 335 335 326 312 312 310 316 316 316 315 311 307 301 298 300 250 260 261 256 251 247 244 240 234
121 99 69 53 44 21 11 3 358 351 351 349 347 343 344 344 339 343 332 328 327 326 318 305 309 314 303 305 308 301 296 295 290 274 241 238 243 245 246 243 240 238 237
165 139 55 24 1 345 336 343 340 330 331 333 332 331 333 334 334 333 327 326 324 319 316 310 307 306 303 305 299 299 299 297 291 290 282 268 244 236 237 238 236 235 234
214 222 259 299 326 317 344 336 322 316 315 316 315 318 328 333 332 324 323 323 320 311 308 306 306 307 305 305 305 307 300 298 288 282 283 273 257 252 239 228 227 229 230
218 221 254 273 301 327 11 335 313 306 305 305 309 310 309 293 299 289 295 302 305 304 308 305 299 298 304 306 305 296 297 295 291 288 287 282 274 268 260 252 224 217 227
209 226 246 264 280 343 350 315 309 301 302 309 310 308 308 311 300 302 288 269 271 271 279 290 293 296 299 304 302 296 291 291 290 291 284 275 271 268 263 252 210 219 228
207 229 249 262 284 314 323 310 302 289 298 300 300 302 301 305 324 319 308 301 297 289 284 281 287 291 295 299 295 293 292 286 282 272 263 270 270 268 266 254 213 216 222
221 232 245 262 270 272 310 304 293 291 289 294 296 299 303 304 337 317 301 299 298 294 271 264 279 283 284 280 278 279 279 277 278 274 259 262 270 274 269 259 229 211 217
226 236 241 257 268 281 319 300 293 288 293 297 296 292 299 306 321 310 300 301 299 302 301 289 274 265 268 263 253 260 270 274 278 278 266 261 268 275 273 258 248 231 224